{"data":{"norad_id":62580,"epoch":"2026-09-22T17:46:41.383200Z","epoch_age_seconds":123763,"freshness":"FRESH","line1":"1 62580U 25007F   26265.74075675 -.00000060  00000+0  76036-4 0  9999","line2":"2 62580  54.9782 309.9252 0009132 293.7256  66.2742 13.80560938 88205","mean_motion":13.80560938,"eccentricity":0.0009132,"inclination_deg":54.9782,"raan_deg":309.9252,"arg_perigee_deg":293.7256,"mean_anomaly_deg":66.2742,"bstar":7.6036e-5,"rev_number":8820,"period_min":104.30542834901,"perigee_km":955.19490688725,"apogee_km":968.60074649472,"semimajor_km":7340.034826691,"source":"CELESTRAK","updated_at":"2026-09-23T09:00:21.490091Z"}}